owner,sensor,date,latitude,longitude,vertical_datum,wind_speed,wind_to_direction,wind_speed_of_gust,qcFlag 
TABS,ioos:station:wmo:42046:1,2013-10-01T00:00:00Z,27.8903,-94.0367,4.0,3.50235635,157.6824153,4.19,'11111222,11111222,11111222' 
TABS,ioos:station:wmo:42046:1,2013-10-01T00:30:00Z,27.8903,-94.0367,4.0,3.215991294,152.3993907,3.78,'11111222,11111222,11111222' 
TABS,ioos:station:wmo:42046:1,2013-10-01T01:00:00Z,27.8903,-94.0367,4.0,4.065525796,154.1915556,4.76,'11111222,11111222,11111222' 
TABS,ioos:station:wmo:42046:1,2013-10-01T01:30:00Z,27.8903,-94.0367,4.0,4.446268098,141.3002428,5.34,'11111222,11111222,11111222' 
TABS,ioos:station:wmo:42046:1,2013-10-01T02:00:00Z,27.8903,-94.0367,4.0,5.01008982,142.7873154,5.69,'11111222,11111222,11111222' 
TABS,ioos:station:wmo:42046:1,2013-10-01T02:30:00Z,27.8903,-94.0367,4.0,5.737813172,139.4531654,6.82,'11111222,11111222,11111222' 
TABS,ioos:station:wmo:42046:1,2013-10-01T03:00:00Z,27.8903,-94.0367,4.0,6.79638139,143.7373932,7.98,'11111222,11111222,11111222' 
TABS,ioos:station:wmo:42046:1,2013-10-01T03:30:00Z,27.8903,-94.0367,4.0,6.664788069,149.6262703,7.68,'11111222,11111222,11111222' 
TABS,ioos:station:wmo:42046:1,2013-10-01T04:00:00Z,27.8903,-94.0367,4.0,7.007553068,149.3730608,7.9,'11111222,11111222,11111222' 
TABS,ioos:station:wmo:42046:1,2013-10-01T04:30:00Z,27.8903,-94.0367,4.0,7.2882714,151.7474403,8.47,'11111222,11111222,11111222' 
TABS,ioos:station:wmo:42046:1,2013-10-01T05:00:00Z,27.8903,-94.0367,4.0,7.211802826,150.8762251,8.03,'11111222,11111222,11111222' 
TABS,ioos:station:wmo:42046:1,2013-10-01T05:30:00Z,27.8903,-94.0367,4.0,6.809060141,154.978292,7.88,'11111222,11111222,11111222' 
TABS,ioos:station:wmo:42046:1,2013-10-01T06:00:00Z,27.8903,-94.0367,4.0,7.222741862,161.2642796,8.16,'11111222,11111222,11111222' 
TABS,ioos:station:wmo:42046:1,2013-10-01T06:30:00Z,27.8903,-94.0367,4.0,6.732495823,161.6460407,7.86,'11111222,11111222,11111222' 
TABS,ioos:station:wmo:42046:1,2013-10-01T07:00:00Z,27.8903,-94.0367,4.0,6.076347587,155.2909849,7.24,'11111222,11111222,11111222' 
TABS,ioos:station:wmo:42046:1,2013-10-01T07:30:00Z,27.8903,-94.0367,4.0,6.292932544,161.5653047,7.33,'11111222,11111222,11111222' 
TABS,ioos:station:wmo:42046:1,2013-10-01T08:00:00Z,27.8903,-94.0367,4.0,5.889804751,162.9189778,6.52,'11111222,11111222,11111222' 
TABS,ioos:station:wmo:42046:1,2013-10-01T08:30:00Z,27.8903,-94.0367,4.0,5.621618984,159.050558,7.0,'11111222,11111222,11111222' 
TABS,ioos:station:wmo:42046:1,2013-10-01T09:00:00Z,27.8903,-94.0367,4.0,6.101745652,164.506294,7.17,'11111222,11111222,11111222' 
TABS,ioos:station:wmo:42046:1,2013-10-01T09:30:00Z,27.8903,-94.0367,4.0,7.309309133,202.354711,8.75,'11111222,11111222,11111222' 
TABS,ioos:station:wmo:42046:1,2013-10-01T10:00:00Z,27.8903,-94.0367,4.0,8.477175237,194.6921366,11.3,'11111222,11111222,11111222' 
TABS,ioos:station:wmo:42046:1,2013-10-01T10:30:00Z,27.8903,-94.0367,4.0,6.858228634,191.5231105,8.3,'11111222,11111222,11111222' 
TABS,ioos:station:wmo:42046:1,2013-10-01T11:00:00Z,27.8903,-94.0367,4.0,5.98101162,178.946396,6.95,'11111222,11111222,11111222' 
TABS,ioos:station:wmo:42046:1,2013-10-01T11:30:00Z,27.8903,-94.0367,4.0,4.98561932,169.3664608,6.15,'11111222,11111222,11111222' 
TABS,ioos:station:wmo:42046:1,2013-10-01T12:00:00Z,27.8903,-94.0367,4.0,5.220153254,159.8296042,6.22,'11111222,11111222,11111222' 
TABS,ioos:station:wmo:42046:1,2013-10-01T12:30:00Z,27.8903,-94.0367,4.0,5.208387466,161.1826437,6.1,'11111222,11111222,11111222' 
TABS,ioos:station:wmo:42046:1,2013-10-01T13:00:00Z,27.8903,-94.0367,4.0,5.432531638,168.3179914,6.21,'11111222,11111222,11111222' 
TABS,ioos:station:wmo:42046:1,2013-10-01T13:30:00Z,27.8903,-94.0367,4.0,5.343332294,169.8680226,6.29,'11111222,11111222,11111222' 
TABS,ioos:station:wmo:42046:1,2013-10-01T14:00:00Z,27.8903,-94.0367,4.0,5.032891813,175.8983814,5.95,'11111222,11111222,11111222' 
TABS,ioos:station:wmo:42046:1,2013-10-01T14:30:00Z,27.8903,-94.0367,4.0,4.962841928,163.9755609,5.75,'11111222,11111222,11111222' 
TABS,ioos:station:wmo:42046:1,2013-10-01T15:00:00Z,27.8903,-94.0367,4.0,6.279530237,163.1524354,7.91,'11111222,11111222,11111222' 
TABS,ioos:station:wmo:42046:1,2013-10-01T15:30:00Z,27.8903,-94.0367,4.0,6.201814251,156.3285682,7.38,'11111222,11111222,11111222' 
TABS,ioos:station:wmo:42046:1,2013-10-01T16:00:00Z,27.8903,-94.0367,4.0,6.646412566,165.0021925,7.76,'11111222,11111222,11111222' 
TABS,ioos:station:wmo:42046:1,2013-10-01T16:30:00Z,27.8903,-94.0367,4.0,6.255629465,163.5641897,7.21,'11111222,11111222,11111222' 
TABS,ioos:station:wmo:42046:1,2013-10-01T17:00:00Z,27.8903,-94.0367,4.0,5.245817381,153.386376,6.17,'11111222,11111222,11111222' 
TABS,ioos:station:wmo:42046:1,2013-10-01T17:30:00Z,27.8903,-94.0367,4.0,5.06107696,149.4830777,6.14,'11111222,11111222,11111222' 
TABS,ioos:station:wmo:42046:1,2013-10-01T18:00:00Z,27.8903,-94.0367,4.0,5.179420817,148.5812063,5.86,'11111222,11111222,11111222' 
TABS,ioos:station:wmo:42046:1,2013-10-01T18:30:00Z,27.8903,-94.0367,4.0,5.193996534,147.9013583,6.24,'11111222,11111222,11111222' 
TABS,ioos:station:wmo:42046:1,2013-10-01T19:00:00Z,27.8903,-94.0367,4.0,4.379223675,140.9318287,5.12,'11111222,11111222,11111222' 
TABS,ioos:station:wmo:42046:1,2013-10-01T19:30:00Z,27.8903,-94.0367,4.0,10.28895038,119.3308048,13.88,'11111222,11111222,11111222' 
TABS,ioos:station:wmo:42046:1,2013-10-01T20:00:00Z,27.8903,-94.0367,4.0,10.36233564,123.1076582,12.59,'11111222,11111222,11111222' 
TABS,ioos:station:wmo:42046:1,2013-10-01T20:30:00Z,27.8903,-94.0367,4.0,5.611933713,140.4953913,8.17,'11111222,11111222,11111222' 
TABS,ioos:station:wmo:42046:1,2013-10-01T21:00:00Z,27.8903,-94.0367,4.0,10.01205773,132.9361365,13.69,'11111222,11111222,11111222' 
TABS,ioos:station:wmo:42046:1,2013-10-01T21:30:00Z,27.8903,-94.0367,4.0,7.385242041,136.6462893,8.6,'11111222,11111222,11111222' 
TABS,ioos:station:wmo:42046:1,2013-10-01T22:00:00Z,27.8903,-94.0367,4.0,6.059570942,141.1632901,7.29,'11111222,11111222,11111222' 
TABS,ioos:station:wmo:42046:1,2013-10-01T22:30:00Z,27.8903,-94.0367,4.0,6.003332408,145.039547,6.95,'11111222,11111222,11111222' 
TABS,ioos:station:wmo:42046:1,2013-10-01T23:00:00Z,27.8903,-94.0367,4.0,5.976495629,139.1390504,6.99,'11111222,11111222,11111222' 
TABS,ioos:station:wmo:42046:1,2013-10-01T23:30:00Z,27.8903,-94.0367,4.0,5.76850934,147.9633168,7.14,'11111222,11111222,11111222' 
TABS,ioos:station:wmo:42046:1,2013-10-02T00:00:00Z,27.8903,-94.0367,4.0,5.974027117,137.5782365,6.99,'11111222,11111222,11111222' 
TABS,ioos:station:wmo:42046:1,2013-10-02T00:30:00Z,27.8903,-94.0367,4.0,6.196063266,146.0537523,7.05,'11111222,11111222,11111222' 
TABS,ioos:station:wmo:42046:1,2013-10-02T01:00:00Z,27.8903,-94.0367,4.0,6.067833221,140.6178831,6.82,'11111222,11111222,11111222' 
TABS,ioos:station:wmo:42046:1,2013-10-02T01:30:00Z,27.8903,-94.0367,4.0,6.428475714,134.0549288,7.16,'11111222,11111222,11111222' 
TABS,ioos:station:wmo:42046:1,2013-10-02T02:00:00Z,27.8903,-94.0367,4.0,8.703591213,125.2242587,9.9,'11111222,11111222,11111222' 
TABS,ioos:station:wmo:42046:1,2013-10-02T02:30:00Z,27.8903,-94.0367,4.0,8.425164687,114.7707539,10.41,'11111222,11111222,11111222' 
TABS,ioos:station:wmo:42046:1,2013-10-02T03:00:00Z,27.8903,-94.0367,4.0,8.122130262,114.5143764,9.4,'11111222,11111222,11111222' 
TABS,ioos:station:wmo:42046:1,2013-10-02T03:30:00Z,27.8903,-94.0367,4.0,7.982436971,123.1927185,9.2,'11111222,11111222,11111222' 
TABS,ioos:station:wmo:42046:1,2013-10-02T04:00:00Z,27.8903,-94.0367,4.0,7.274730236,118.2210962,9.24,'11111222,11111222,11111222' 
TABS,ioos:station:wmo:42046:1,2013-10-02T04:30:00Z,27.8903,-94.0367,4.0,7.445998926,124.9923593,8.89,'11111222,11111222,11111222' 
TABS,ioos:station:wmo:42046:1,2013-10-02T05:00:00Z,27.8903,-94.0367,4.0,7.372930218,122.7635858,9.13,'11111222,11111222,11111222' 
TABS,ioos:station:wmo:42046:1,2013-10-02T05:30:00Z,27.8903,-94.0367,4.0,7.978696635,117.1434854,9.02,'11111222,11111222,11111222' 
TABS,ioos:station:wmo:42046:1,2013-10-02T06:00:00Z,27.8903,-94.0367,4.0,7.261432366,121.3700665,8.73,'11111222,11111222,11111222' 
TABS,ioos:station:wmo:42046:1,2013-10-02T06:30:00Z,27.8903,-94.0367,4.0,7.550165561,120.1311512,8.69,'11111222,11111222,11111222' 
TABS,ioos:station:wmo:42046:1,2013-10-02T07:00:00Z,27.8903,-94.0367,4.0,7.460060321,127.1006425,8.6,'11111222,11111222,11111222' 
TABS,ioos:station:wmo:42046:1,2013-10-02T07:30:00Z,27.8903,-94.0367,4.0,6.861209806,118.8440737,8.17,'11111222,11111222,11111222' 
TABS,ioos:station:wmo:42046:1,2013-10-02T08:00:00Z,27.8903,-94.0367,4.0,6.376362599,127.4812669,7.31,'11111222,11111222,11111222' 
TABS,ioos:station:wmo:42046:1,2013-10-02T08:30:00Z,27.8903,-94.0367,4.0,6.121323386,138.5766417,7.23,'11111222,11111222,11111222' 
TABS,ioos:station:wmo:42046:1,2013-10-02T09:00:00Z,27.8903,-94.0367,4.0,5.754172399,139.7230166,7.0,'11111222,11111222,11111222' 
TABS,ioos:station:wmo:42046:1,2013-10-02T09:30:00Z,27.8903,-94.0367,4.0,5.434353687,142.4767045,6.44,'11111222,11111222,11111222' 
TABS,ioos:station:wmo:42046:1,2013-10-02T10:00:00Z,27.8903,-94.0367,4.0,5.124109679,138.8774941,6.24,'11111222,11111222,11111222' 
TABS,ioos:station:wmo:42046:1,2013-10-02T10:30:00Z,27.8903,-94.0367,4.0,5.067326711,137.3995679,6.24,'11111222,11111222,11111222' 
TABS,ioos:station:wmo:42046:1,2013-10-02T11:00:00Z,27.8903,-94.0367,4.0,4.627580361,140.8764138,5.38,'11111222,11111222,11111222' 
TABS,ioos:station:wmo:42046:1,2013-10-02T11:30:00Z,27.8903,-94.0367,4.0,4.651300893,145.8660783,5.56,'11111222,11111222,11111222' 
TABS,ioos:station:wmo:42046:1,2013-10-02T12:00:00Z,27.8903,-94.0367,4.0,4.633033563,150.9456743,5.52,'11111222,11111222,11111222' 
TABS,ioos:station:wmo:42046:1,2013-10-02T12:30:00Z,27.8903,-94.0367,4.0,4.212457715,148.196748,4.88,'11111222,11111222,11111222' 
TABS,ioos:station:wmo:42046:1,2013-10-02T13:00:00Z,27.8903,-94.0367,4.0,3.394377704,134.2841574,4.58,'11111222,11111222,11111222' 
TABS,ioos:station:wmo:42046:1,2013-10-02T13:30:00Z,27.8903,-94.0367,4.0,3.0835045,133.9491374,4.21,'11111222,11111222,11111222' 
TABS,ioos:station:wmo:42046:1,2013-10-02T14:00:00Z,27.8903,-94.0367,4.0,3.809317524,139.5784669,5.03,'11111222,11111222,11111222' 
TABS,ioos:station:wmo:42046:1,2013-10-02T14:30:00Z,27.8903,-94.0367,4.0,3.236309627,138.1315298,4.21,'11111222,11111222,11111222' 
TABS,ioos:station:wmo:42046:1,2013-10-02T15:00:00Z,27.8903,-94.0367,4.0,2.744922585,108.0392801,3.74,'11111222,11111222,11111222' 
TABS,ioos:station:wmo:42046:1,2013-10-02T15:30:00Z,27.8903,-94.0367,4.0,3.248876729,94.23680581,3.87,'11111222,11111222,11111222' 
TABS,ioos:station:wmo:42046:1,2013-10-02T16:00:00Z,27.8903,-94.0367,4.0,3.766510321,99.93788132,4.57,'11111222,11111222,11111222' 
TABS,ioos:station:wmo:42046:1,2013-10-02T16:30:00Z,27.8903,-94.0367,4.0,3.640219774,102.0511776,4.86,'11111222,11111222,11111222' 
TABS,ioos:station:wmo:42046:1,2013-10-02T17:00:00Z,27.8903,-94.0367,4.0,4.29408896,97.22471972,5.0,'11111222,11111222,11111222' 
TABS,ioos:station:wmo:42046:1,2013-10-02T17:30:00Z,27.8903,-94.0367,4.0,4.176469801,104.1364497,4.82,'11111222,11111222,11111222' 
TABS,ioos:station:wmo:42046:1,2013-10-02T18:00:00Z,27.8903,-94.0367,4.0,3.736642878,114.5077688,4.3,'11111222,11111222,11111222' 
TABS,ioos:station:wmo:42046:1,2013-10-02T18:30:00Z,27.8903,-94.0367,4.0,3.838502312,112.3561467,4.77,'11111222,11111222,11111222' 
TABS,ioos:station:wmo:42046:1,2013-10-02T19:00:00Z,27.8903,-94.0367,4.0,3.39607126,130.8212132,4.16,'11111222,11111222,11111222' 
TABS,ioos:station:wmo:42046:1,2013-10-02T19:30:00Z,27.8903,-94.0367,4.0,3.374685171,144.284986,4.12,'11111222,11111222,11111222' 
TABS,ioos:station:wmo:42046:1,2013-10-02T20:00:00Z,27.8903,-94.0367,4.0,2.828798331,139.1573511,3.45,'11111222,11111222,11111222' 
TABS,ioos:station:wmo:42046:1,2013-10-02T20:30:00Z,27.8903,-94.0367,4.0,2.635317818,118.3158357,3.47,'11111222,11111222,11111222' 
TABS,ioos:station:wmo:42046:1,2013-10-02T21:00:00Z,27.8903,-94.0367,4.0,2.723031399,109.3003519,3.49,'11111222,11111222,11111222' 
TABS,ioos:station:wmo:42046:1,2013-10-02T21:30:00Z,27.8903,-94.0367,4.0,2.833654884,107.6680201,3.83,'11111222,11111222,11111222' 
TABS,ioos:station:wmo:42046:1,2013-10-02T22:00:00Z,27.8903,-94.0367,4.0,2.998966489,106.8643209,3.76,'11111222,11111222,11111222' 
TABS,ioos:station:wmo:42046:1,2013-10-02T22:30:00Z,27.8903,-94.0367,4.0,4.131597754,97.09101914,5.01,'11111222,11111222,11111222' 
TABS,ioos:station:wmo:42046:1,2013-10-02T23:00:00Z,27.8903,-94.0367,4.0,4.538424837,103.1180201,5.25,'11111222,11111222,11111222' 
TABS,ioos:station:wmo:42046:1,2013-10-02T23:30:00Z,27.8903,-94.0367,4.0,4.766424236,106.077873,5.94,'11111222,11111222,11111222' 
TABS,ioos:station:wmo:42046:1,2013-10-03T00:00:00Z,27.8903,-94.0367,4.0,5.28000947,112.7287473,6.2,'11111222,11111222,11111222' 
TABS,ioos:station:wmo:42046:1,2013-10-03T00:30:00Z,27.8903,-94.0367,4.0,5.535639078,112.0708613,6.62,'11111222,11111222,11111222' 
TABS,ioos:station:wmo:42046:1,2013-10-03T01:00:00Z,27.8903,-94.0367,4.0,5.102724762,116.4147645,6.14,'11111222,11111222,11111222' 
TABS,ioos:station:wmo:42046:1,2013-10-03T01:30:00Z,27.8903,-94.0367,4.0,5.224748798,117.8406161,6.23,'11111222,11111222,11111222' 
TABS,ioos:station:wmo:42046:1,2013-10-03T02:00:00Z,27.8903,-94.0367,4.0,5.501136246,115.8667172,6.4,'11111222,11111222,11111222' 
TABS,ioos:station:wmo:42046:1,2013-10-03T02:30:00Z,27.8903,-94.0367,4.0,5.17919878,124.8564161,6.09,'11111222,11111222,11111222' 
TABS,ioos:station:wmo:42046:1,2013-10-03T03:00:00Z,27.8903,-94.0367,4.0,5.360270516,125.2025212,6.25,'11111222,11111222,11111222' 
TABS,ioos:station:wmo:42046:1,2013-10-03T03:30:00Z,27.8903,-94.0367,4.0,5.54836913,127.5311478,6.48,'11111222,11111222,11111222' 
TABS,ioos:station:wmo:42046:1,2013-10-03T04:00:00Z,27.8903,-94.0367,4.0,5.711059446,122.9947706,6.68,'11111222,11111222,11111222' 
TABS,ioos:station:wmo:42046:1,2013-10-03T04:30:00Z,27.8903,-94.0367,4.0,6.132943828,131.8278217,7.35,'11111222,11111222,11111222' 
TABS,ioos:station:wmo:42046:1,2013-10-03T05:00:00Z,27.8903,-94.0367,4.0,5.671437208,135.7146882,6.6,'11111222,11111222,11111222' 
TABS,ioos:station:wmo:42046:1,2013-10-03T05:30:00Z,27.8903,-94.0367,4.0,5.79711135,137.5870048,6.72,'11111222,11111222,11111222' 
TABS,ioos:station:wmo:42046:1,2013-10-03T06:00:00Z,27.8903,-94.0367,4.0,5.804248444,138.8422401,6.78,'11111222,11111222,11111222' 
TABS,ioos:station:wmo:42046:1,2013-10-03T06:30:00Z,27.8903,-94.0367,4.0,5.865807702,139.4943621,7.09,'11111222,11111222,11111222' 
TABS,ioos:station:wmo:42046:1,2013-10-03T07:00:00Z,27.8903,-94.0367,4.0,5.334135356,143.5385726,6.34,'11111222,11111222,11111222' 
TABS,ioos:station:wmo:42046:1,2013-10-03T07:30:00Z,27.8903,-94.0367,4.0,4.7060068,143.032999,5.72,'11111222,11111222,11111222' 
TABS,ioos:station:wmo:42046:1,2013-10-03T08:00:00Z,27.8903,-94.0367,4.0,4.704253395,145.5670416,5.5,'11111222,11111222,11111222' 
TABS,ioos:station:wmo:42046:1,2013-10-03T08:30:00Z,27.8903,-94.0367,4.0,4.26864147,142.1370876,4.94,'11111222,11111222,11111222' 
TABS,ioos:station:wmo:42046:1,2013-10-03T09:00:00Z,27.8903,-94.0367,4.0,3.781917503,149.8419903,4.58,'11111222,11111222,11111222' 
TABS,ioos:station:wmo:42046:1,2013-10-03T09:30:00Z,27.8903,-94.0367,4.0,3.84314975,144.531939,4.79,'11111222,11111222,11111222' 
TABS,ioos:station:wmo:42046:1,2013-10-03T10:00:00Z,27.8903,-94.0367,4.0,3.528356558,156.2686076,4.35,'11111222,11111222,11111222' 
TABS,ioos:station:wmo:42046:1,2013-10-03T10:30:00Z,27.8903,-94.0367,4.0,3.378668377,165.4293108,4.07,'11111222,11111222,11111222' 
TABS,ioos:station:wmo:42046:1,2013-10-03T11:00:00Z,27.8903,-94.0367,4.0,2.744922585,161.9613513,3.81,'11111222,11111222,11111222' 
TABS,ioos:station:wmo:42046:1,2013-10-03T11:30:00Z,27.8903,-94.0367,4.0,2.812987735,153.6174009,3.52,'11111222,11111222,11111222' 
TABS,ioos:station:wmo:42046:1,2013-10-03T12:00:00Z,27.8903,-94.0367,4.0,2.683654225,152.4803824,3.44,'11111222,11111222,11111222' 
TABS,ioos:station:wmo:42046:1,2013-10-03T12:30:00Z,27.8903,-94.0367,4.0,4.612081959,121.7950361,5.95,'11111222,11111222,11111222' 
TABS,ioos:station:wmo:42046:1,2013-10-03T13:00:00Z,27.8903,-94.0367,4.0,4.426036602,155.5777398,5.62,'11111222,11111222,11111222' 
TABS,ioos:station:wmo:42046:1,2013-10-03T13:30:00Z,27.8903,-94.0367,4.0,3.654531434,158.4899859,4.29,'11111222,11111222,11111222' 
TABS,ioos:station:wmo:42046:1,2013-10-03T14:00:00Z,27.8903,-94.0367,4.0,3.47070598,158.5360616,4.26,'11111222,11111222,11111222' 
TABS,ioos:station:wmo:42046:1,2013-10-03T14:30:00Z,27.8903,-94.0367,4.0,2.858006298,143.2506836,3.77,'11111222,11111222,11111222' 
TABS,ioos:station:wmo:42046:1,2013-10-03T15:00:00Z,27.8903,-94.0367,4.0,2.657066051,146.6690624,3.36,'11111222,11111222,11111222' 
TABS,ioos:station:wmo:42046:1,2013-10-03T15:30:00Z,27.8903,-94.0367,4.0,3.935695618,146.7139898,4.62,'11111222,11111222,11111222' 
TABS,ioos:station:wmo:42046:1,2013-10-03T16:00:00Z,27.8903,-94.0367,4.0,4.404565813,149.8842972,5.09,'11111222,11111222,11111222' 
TABS,ioos:station:wmo:42046:1,2013-10-03T16:30:00Z,27.8903,-94.0367,4.0,4.546086229,142.7775047,5.5,'11111222,11111222,11111222' 
TABS,ioos:station:wmo:42046:1,2013-10-03T17:00:00Z,27.8903,-94.0367,4.0,4.083099313,140.266599,5.08,'11111222,11111222,11111222' 
TABS,ioos:station:wmo:42046:1,2013-10-03T17:30:00Z,27.8903,-94.0367,4.0,4.066841526,140.9884501,4.9,'11111222,11111222,11111222' 
TABS,ioos:station:wmo:42046:1,2013-10-03T18:00:00Z,27.8903,-94.0367,4.0,4.647848965,139.8001406,5.55,'11111222,11111222,11111222' 
TABS,ioos:station:wmo:42046:1,2013-10-03T18:30:00Z,27.8903,-94.0367,4.0,4.570918945,145.7887345,5.28,'11111222,11111222,11111222' 
TABS,ioos:station:wmo:42046:1,2013-10-03T19:00:00Z,27.8903,-94.0367,4.0,3.910818329,134.0679191,4.9,'11111222,11111222,11111222' 
TABS,ioos:station:wmo:42046:1,2013-10-03T19:30:00Z,27.8903,-94.0367,4.0,4.258931791,128.996303,5.2,'11111222,11111222,11111222' 
TABS,ioos:station:wmo:42046:1,2013-10-03T20:00:00Z,27.8903,-94.0367,4.0,3.985699437,120.6189547,4.99,'11111222,11111222,11111222' 
TABS,ioos:station:wmo:42046:1,2013-10-03T20:30:00Z,27.8903,-94.0367,4.0,3.572618088,122.8897462,4.23,'11111222,11111222,11111222' 
TABS,ioos:station:wmo:42046:1,2013-10-03T21:00:00Z,27.8903,-94.0367,4.0,4.123117752,119.1764318,4.75,'11111222,11111222,11111222' 
TABS,ioos:station:wmo:42046:1,2013-10-03T21:30:00Z,27.8903,-94.0367,4.0,3.520127839,117.5845389,4.57,'11111222,11111222,11111222' 
TABS,ioos:station:wmo:42046:1,2013-10-03T22:00:00Z,27.8903,-94.0367,4.0,3.063396807,121.9264274,4.0,'11111222,11111222,11111222' 
TABS,ioos:station:wmo:42046:1,2013-10-03T22:30:00Z,27.8903,-94.0367,4.0,3.087555668,104.4417001,4.09,'11111222,11111222,11111222' 
TABS,ioos:station:wmo:42046:1,2013-10-03T23:00:00Z,27.8903,-94.0367,4.0,3.194197865,111.1022743,4.08,'11111222,11111222,11111222' 
TABS,ioos:station:wmo:42046:1,2013-10-03T23:30:00Z,27.8903,-94.0367,4.0,3.094010343,99.67582816,4.05,'11111222,11111222,11111222' 
TABS,ioos:station:wmo:42046:1,2013-10-04T00:00:00Z,27.8903,-94.0367,4.0,2.469088901,103.5863804,3.3,'11111222,11111222,11111222' 
TABS,ioos:station:wmo:42046:1,2013-10-04T00:30:00Z,27.8903,-94.0367,4.0,2.665520587,103.6716961,3.45,'11111222,11111222,11111222' 
TABS,ioos:station:wmo:42046:1,2013-10-04T01:00:00Z,27.8903,-94.0367,4.0,3.954870415,110.2681619,4.49,'11111222,11111222,11111222' 
TABS,ioos:station:wmo:42046:1,2013-10-04T01:30:00Z,27.8903,-94.0367,4.0,3.54189215,108.9468813,4.49,'11111222,11111222,11111222' 
TABS,ioos:station:wmo:42046:1,2013-10-04T02:00:00Z,27.8903,-94.0367,4.0,3.492749633,116.7121335,4.08,'11111222,11111222,11111222' 
TABS,ioos:station:wmo:42046:1,2013-10-04T02:30:00Z,27.8903,-94.0367,4.0,4.048160076,111.7492146,5.11,'11111222,11111222,11111222' 
TABS,ioos:station:wmo:42046:1,2013-10-04T03:00:00Z,27.8903,-94.0367,4.0,4.077462446,101.8890512,4.85,'11111222,11111222,11111222' 
TABS,ioos:station:wmo:42046:1,2013-10-04T03:30:00Z,27.8903,-94.0367,4.0,4.303916821,108.1406419,5.1,'11111222,11111222,11111222' 
TABS,ioos:station:wmo:42046:1,2013-10-04T04:00:00Z,27.8903,-94.0367,4.0,4.191729953,98.09184324,4.81,'11111222,11111222,11111222' 
TABS,ioos:station:wmo:42046:1,2013-10-04T04:30:00Z,27.8903,-94.0367,4.0,4.427301661,99.22868884,5.4,'11111222,11111222,11111222' 
TABS,ioos:station:wmo:42046:1,2013-10-04T05:00:00Z,27.8903,-94.0367,4.0,3.785287307,100.6572442,4.49,'11111222,11111222,11111222' 
TABS,ioos:station:wmo:42046:1,2013-10-04T05:30:00Z,27.8903,-94.0367,4.0,3.72780096,103.8129672,4.43,'11111222,11111222,11111222' 
TABS,ioos:station:wmo:42046:1,2013-10-04T06:00:00Z,27.8903,-94.0367,4.0,3.416723577,100.4552315,4.15,'11111222,11111222,11111222' 
TABS,ioos:station:wmo:42046:1,2013-10-04T06:30:00Z,27.8903,-94.0367,4.0,3.1092282,107.2114959,4.03,'11111222,11111222,11111222' 
TABS,ioos:station:wmo:42046:1,2013-10-04T07:00:00Z,27.8903,-94.0367,4.0,3.262422413,114.4443185,3.9,'11111222,11111222,11111222' 
TABS,ioos:station:wmo:42046:1,2013-10-04T07:30:00Z,27.8903,-94.0367,4.0,2.958141308,111.6219443,3.71,'11111222,11111222,11111222' 
TABS,ioos:station:wmo:42046:1,2013-10-04T08:00:00Z,27.8903,-94.0367,4.0,2.689274995,121.6218068,3.55,'11111222,11111222,11111222' 
TABS,ioos:station:wmo:42046:1,2013-10-04T08:30:00Z,27.8903,-94.0367,4.0,3.041397705,130.8672547,3.92,'11111222,11111222,11111222' 
TABS,ioos:station:wmo:42046:1,2013-10-04T09:00:00Z,27.8903,-94.0367,4.0,3.178002517,126.9423477,3.81,'11111222,11111222,11111222' 
TABS,ioos:station:wmo:42046:1,2013-10-04T09:30:00Z,27.8903,-94.0367,4.0,3.526613106,147.9776807,5.32,'11111222,11111222,11111222' 
TABS,ioos:station:wmo:42046:1,2013-10-04T10:00:00Z,27.8903,-94.0367,4.0,1.635145253,162.5626137,2.1,'11111222,11111222,11111222' 
TABS,ioos:station:wmo:42046:1,2013-10-04T10:30:00Z,27.8903,-94.0367,4.0,4.288053171,161.6498115,5.45,'11111222,11111222,11111222' 
TABS,ioos:station:wmo:42046:1,2013-10-04T11:00:00Z,27.8903,-94.0367,4.0,5.717097166,144.2529132,6.96,'11111222,11111222,11111222' 
TABS,ioos:station:wmo:42046:1,2013-10-04T11:30:00Z,27.8903,-94.0367,4.0,4.325887192,152.013491,5.27,'11111222,11111222,11111222' 
TABS,ioos:station:wmo:42046:1,2013-10-04T12:00:00Z,27.8903,-94.0367,4.0,3.954870415,159.7324695,4.68,'11111222,11111222,11111222' 
TABS,ioos:station:wmo:42046:1,2013-10-04T12:30:00Z,27.8903,-94.0367,4.0,3.915150061,160.917401,4.69,'11111222,11111222,11111222' 
TABS,ioos:station:wmo:42046:1,2013-10-04T13:00:00Z,27.8903,-94.0367,4.0,4.419423039,163.1644099,5.21,'11111222,11111222,11111222' 
TABS,ioos:station:wmo:42046:1,2013-10-04T13:30:00Z,27.8903,-94.0367,4.0,5.41447135,124.5415631,6.45,'11111222,11111222,11111222' 
TABS,ioos:station:wmo:42046:1,2013-10-04T14:00:00Z,27.8903,-94.0367,4.0,5.481788029,128.3336714,7.0,'11111222,11111222,11111222' 
TABS,ioos:station:wmo:42046:1,2013-10-04T14:30:00Z,27.8903,-94.0367,4.0,4.442881948,159.4442133,6.6,'11111222,11111222,11111222' 
TABS,ioos:station:wmo:42046:1,2013-10-04T15:00:00Z,27.8903,-94.0367,4.0,6.095777227,132.1412361,7.31,'11111222,11111222,11111222' 
TABS,ioos:station:wmo:42046:1,2013-10-04T15:30:00Z,27.8903,-94.0367,4.0,5.807624299,133.3956199,6.63,'11111222,11111222,11111222' 
TABS,ioos:station:wmo:42046:1,2013-10-04T16:00:00Z,27.8903,-94.0367,4.0,5.360904774,129.7785306,6.3,'11111222,11111222,11111222' 
TABS,ioos:station:wmo:42046:1,2013-10-04T16:30:00Z,27.8903,-94.0367,4.0,5.479023636,124.9666585,6.16,'11111222,11111222,11111222' 
TABS,ioos:station:wmo:42046:1,2013-10-04T17:00:00Z,27.8903,-94.0367,4.0,5.53797797,128.4016153,6.43,'11111222,11111222,11111222' 
TABS,ioos:station:wmo:42046:1,2013-10-04T17:30:00Z,27.8903,-94.0367,4.0,5.252704066,127.8083483,6.27,'11111222,11111222,11111222' 
TABS,ioos:station:wmo:42046:1,2013-10-04T18:00:00Z,27.8903,-94.0367,4.0,4.477153113,124.7197746,5.42,'11111222,11111222,11111222' 
TABS,ioos:station:wmo:42046:1,2013-10-04T18:30:00Z,27.8903,-94.0367,4.0,4.217404415,120.3350199,5.32,'11111222,11111222,11111222' 